Vertical_Velocity
-2 9 7 14 9 -0 15 2 13 14 6 -17 7 2 5 -0 4 7 -1 -3 2 4 4 3 0 -0 1 1 -1 -0 1 2 1 -1 2 0 1 2 -0 -2 -2 -0 -1
-2 6 9 7 13 8 12 -4 -11 5 5 10 28 -28 17 -17 7 16 7 4 -1 5 3 0 5 3 2 3 1 0 2 1 1 0 -0 -1 -0 4 3 -1 3 -1 -1
1 7 8 8 6 4 3 3 13 11 15 26 28 19 -41 -29 1 -21 -5 15 8 1 11 0 -4 -3 -1 1 5 0 -1 2 -0 2 0 0 0 5 3 -2 -3 5 1
3 3 2 -2 -6 3 5 6 11 -4 -6 12 -7 -25 13 11 5 12 7 7 9 -13 -14 -11 -13 -14 -5 3 -2 -5 -6 0 3 1 4 -4 2 0 3 6 3 1 2
-6 5 -12 11 5 -1 3 8 7 -2 -5 -7 14 22 7 21 -10 15 2 -8 6 7 10 14 16 9 7 12 2 -8 2 1 -7 -13 -10 3 5 -0 -1 4 -4 0 -2
-22 -3 10 4 -3 -7 -2 -3 4 7 -2 9 -2 10 19 14 16 5 5 8 5 8 12 -18 -33 -6 19 -28 10 1 -2 -8 6 4 8 3 -4 5 -5 -4 2 -12 -2
-1 -5 -7 4 1 -2 -2 0 1 1 13 6 5 -0 -2 1 2 -0 9 10 5 -3 6 3 2 7 13 22 -3 2 8 21 8 7 3 5 -1 -2 3 6 -0 6 1
-5 -3 -6 2 3 1 -4 -2 0 -2 -2 1 4 6 5 3 -2 -1 -2 -2 3 11 -0 1 3 -0 -4 -0 -0 -7 21 57 2 12 31 4 9 15 9 -7 -7 -9 -2
1 -4 4 7 -1 -1 -2 -0 3 0 1 -3 -2 -2 -0 -1 2 0 -1 -2 -0 2 -1 -3 -3 -2 -1 1 8 8 -3 -11 -4 2 6 1 4 0 -11 5 6 12 1
6 3 -6 -3 0 4 -1 -6 -3 -3 0 -1 -3 -4 -1 -5 -4 -3 -5 -0 -6 3 -1 -1 -4 5 -2 -2 2 0 2 -2 -2 -2 -3 -0 4 11 7 3 7 7 3
3 8 10 4 7 0 2 0 1 -4 -5 -1 -1 -6 -5 -2 -1 -4 -0 2 6 3 3 1 -0 -0 1 4 1 3 -2 -1 -8 2 -0 6 1 1 5 2 -0 -1 3
9 9 -1 -4 -5 -2 -1 2 3 1 -2 -1 -5 2 6 -3 2 9 1 8 4 -5 -6 -10 -10 -0 -2 2 3 -3 2 4 8 -6 -12 -2 3 7 -1 3 -5 0 1
7 0 1 6 6 3 -1 -8 -3 1 -3 -2 4 3 4 3 2 1 -7 6 1 -2 3 -1 2 -3 3 5 -5 3 -1 -1 3 3 -1 3 -0 3 -1 -2 5 4 3
-7 0 1 3 6 2 -1 -2 -1 3 1 -3 0 1 5 2 -2 3 3 1 1 -3 -5 -3 2 2 -6 7 3 1 1 1 1 -3 3 -2 -0 1 1 -1 -0 2 0
-3 7 4 2 -2 -3 -5 0 -2 -3 -1 3 5 3 2 -3 -1 2 -3 -2 2 4 -1 -2 -3 1 -1 3 -3 4 -4 0 3 -0 -2 -1 -1 2 3 -0 3 2 -0
-2 1 -1 3 1 2 -0 1 3 2 0 -2 3 -0 1 1 -1 1 4 5 3 -1 -1 -1 2 -7 -5 1 -0 -6 2 1 -2 -1 -0 -2 1 0 -2 3 1 4 -0
2 6 2 2 4 5 1 1 1 0 -1 -1 1 1 2 -3 0 -5 3 1 -1 -3 -1 0 -1 -5 -4 1 -1 1 0 1 -0 -1 -2 -1 -1 -0 0 2 -0 0 2
1 0 1 2 3 1 1 0 -1 0 3 3 5 2 1 -1 -2 4 3 2 -1 -2 -0 -2 -2 -4 -1 -1 -0 -1 1 -1 -3 0 -1 -3 1 -1 2 -2 0 2 5
1 2 2 -1 -0 0 -1 1 3 3 3 3 1 1 -1 2 3 2 1 -4 -4 -4 -2 -3 -4 -4 -2 -0 1 -1 -3 0 -3 -6 -3 -1 -2 2 0 3 1 2 -2
2 0 0 0 3 3 3 3 1 0 2 2 -1 -2 0 2 3 -1 -4 -3 -3 -2 -2 -0 1 -1 -2 -0 -1 -3 -3 -3 -2 -0 -2 -1 -3 -2 -0 2 -2 -1 4
-1 0 -0 -1 -2 -1 -1 -1 -1 -1 -3 -1 1 1 2 1 -0 -1 -0 -2 -2 -2 -0 0 -0 0 3 -2 -3 -2 -2 -0 -0 -1 -1 -3 -2 -1 1 -0 -1 3 1
-0 -2 -2 -0 1 1 1 -1 0 -2 -0 1 -1 0 1 1 1 0 -1 -1 0 1 0 1 -1 -2 -2 -2 -2 -0 -1 -2 -2 -1 -2 -2 -1 -0 -1 0 0 2 2
2 1 1 -1 -1 1 3 2 2 2 1 1 1 0 0 -0 -1 -2 -2 -2 -2 -0 -2 -3 -3 -2 -4 -1 -1 -1 -1 -0 -0 -3 -2 -2 -0 -1 -0 1 1 2 0
2 0 0 -0 0 1 -1 -1 -1 1 -0 0 -0 -1 0 -0 -1 -0 -2 -1 -1 -4 -3 -5 -3 -1 -1 -0 -3 -3 -3 -2 -3 -2 -1 -2 -1 2 -1 0 2 3 2
1 1 1 1 1 1 -1 -3 -3 -1 -0 0 0 -0 -1 -0 -2 0 0 -2 -3 -1 1 0 -3 -1 1 -2 -4 -3 -0 -1 -2 -2 -0 -0 2 1 1 2 1 1 3
1 0 0 0 -2 -3 -1 0 -1 -1 -0 -2 -2 -4 -6 -1 -3 -3 1 -1 -3 -1 0 -2 -2 -2 -1 -2 -2 -1 -1 -1 -3 -2 -0 0 2 2 1 1 0 4 3
Height
3074 3080 3086 3093 3097 3104 3111 3118 3123 3129 3131 3137 3140 3146 3149 3155 3161 3165 3168 3172 3176 3179 3181 3183 3185 3187 3188 3189 3190 3191 3192 3192 3192 3192 3191 3191 3190 3190 3191 3190 3190 3190 3189
3071 3078 3083 3090 3094 3102 3107 3115 3121 3126 3130 3134 3137 3139 3138 3148 3157 3162 3164 3168 3171 3175 3177 3178 3180 3183 3184 3185 3185 3186 3187 3187 3187 3187 3186 3186 3187 3186 3185 3185 3184 3184 3184
3070 3076 3081 3088 3094 3099 3107 3112 3117 3122 3125 3130 3133 3133 3140 3147 3151 3155 3159 3163 3167 3170 3172 3174 3175 3177 3178 3179 3181 3181 3181 3181 3180 3181 3181 3181 3181 3181 3180 3180 3180 3179 3179
3068 3072 3078 3088 3094 3100 3105 3110 3114 3116 3118 3121 3126 3134 3139 3141 3144 3147 3152 3157 3161 3164 3166 3168 3170 3172 3173 3173 3173 3174 3176 3174 3174 3174 3176 3176 3175 3174 3175 3175 3174 3174 3173
3067 3071 3076 3088 3094 3099 3105 3109 3111 3116 3116 3120 3124 3130 3134 3138 3141 3143 3147 3152 3154 3157 3160 3162 3164 3164 3164 3164 3164 3163 3163 3163 3166 3168 3168 3169 3169 3169 3168 3169 3169 3167 3167
3064 3071 3078 3087 3091 3097 3101 3105 3110 3113 3118 3120 3126 3129 3131 3133 3137 3140 3143 3146 3150 3152 3152 3154 3157 3158 3148 3151 3154 3154 3154 3153 3155 3156 3158 3159 3161 3162 3161 3160 3160 3159 3160
3065 3071 3077 3084 3089 3093 3098 3103 3106 3109 3114 3118 3121 3124 3128 3131 3134 3136 3141 3142 3144 3146 3147 3148 3149 3150 3150 3150 3148 3146 3147 3138 3146 3148 3150 3150 3151 3152 3151 3150 3152 3152 3153
3066 3071 3076 3082 3087 3091 3095 3099 3103 3106 3109 3111 3114 3117 3120 3124 3130 3133 3136 3138 3140 3141 3142 3142 3142 3141 3140 3139 3141 3142 3140 3135 3139 3140 3139 3141 3143 3143 3145 3144 3144 3146 3146
3064 3068 3072 3078 3083 3088 3092 3095 3099 3102 3105 3107 3110 3113 3116 3120 3123 3126 3129 3132 3134 3134 3135 3135 3135 3135 3133 3132 3133 3134 3135 3134 3134 3137 3135 3138 3139 3139 3138 3139 3139 3140 3139
3061 3064 3069 3076 3081 3085 3089 3092 3096 3099 3102 3105 3107 3110 3113 3116 3119 3121 3124 3125 3127 3127 3128 3129 3131 3132 3131 3131 3130 3128 3128 3129 3131 3132 3132 3133 3135 3135 3135 3136 3136 3136 3134
3059 3063 3067 3072 3077 3081 3085 3089 3093 3096 3098 3102 3104 3107 3111 3114 3116 3118 3121 3122 3123 3122 3123 3124 3125 3127 3128 3128 3127 3126 3127 3127 3127 3127 3129 3129 3129 3130 3130 3129 3128 3127 3126
3053 3058 3064 3069 3074 3078 3082 3085 3088 3091 3095 3098 3101 3104 3107 3110 3112 3114 3117 3118 3118 3118 3120 3120 3121 3123 3122 3123 3122 3121 3122 3122 3123 3122 3122 3121 3121 3122 3121 3120 3119 3118 3118
3050 3055 3061 3066 3070 3074 3078 3081 3084 3089 3092 3095 3098 3101 3103 3106 3108 3110 3111 3113 3113 3114 3114 3116 3116 3116 3116 3115 3116 3115 3116 3116 3116 3115 3115 3114 3113 3113 3111 3110 3109 3108 3106
3047 3052 3059 3063 3067 3071 3075 3079 3081 3084 3087 3091 3094 3098 3100 3102 3104 3106 3106 3107 3107 3108 3109 3110 3110 3110 3109 3109 3109 3109 3109 3109 3108 3107 3106 3105 3103 3102 3101 3100 3099 3097 3095
3046 3051 3056 3060 3064 3069 3073 3076 3077 3080 3083 3086 3090 3092 3094 3097 3099 3100 3100 3101 3101 3101 3102 3102 3102 3103 3103 3103 3102 3102 3101 3099 3097 3095 3094 3093 3091 3089 3088 3087 3087 3085 3085
3044 3049 3054 3057 3061 3065 3068 3070 3073 3075 3078 3081 3084 3087 3089 3091 3093 3094 3095 3094 3093 3094 3095 3095 3095 3095 3095 3095 3094 3093 3092 3090 3088 3086 3084 3082 3080 3078 3077 3076 3075 3075 3075
3043 3046 3050 3054 3057 3060 3063 3064 3066 3068 3071 3075 3078 3080 3082 3085 3087 3088 3088 3087 3087 3088 3089 3090 3090 3089 3089 3088 3086 3085 3083 3081 3079 3076 3073 3070 3068 3066 3065 3064 3064 3064 3063
3042 3044 3047 3050 3052 3055 3058 3060 3062 3064 3066 3069 3071 3074 3077 3079 3080 3081 3081 3081 3082 3082 3083 3083 3082 3082 3081 3080 3078 3075 3073 3071 3068 3065 3062 3059 3055 3053 3052 3052 3053 3053 3052
3044 3045 3047 3048 3050 3052 3055 3057 3059 3061 3063 3065 3067 3069 3071 3073 3074 3074 3074 3075 3076 3076 3076 3076 3075 3074 3073 3072 3070 3067 3064 3062 3059 3055 3052 3048 3044 3041 3040 3040 3041 3043 3043
3044 3045 3047 3048 3050 3051 3053 3054 3055 3057 3059 3061 3062 3064 3066 3066 3067 3068 3068 3069 3069 3069 3069 3068 3068 3067 3065 3063 3061 3059 3056 3053 3050 3046 3041 3037 3035 3032 3031 3031 3032 3032 3033
3043 3044 3045 3047 3048 3049 3050 3051 3052 3053 3055 3056 3058 3059 3060 3061 3061 3062 3062 3063 3063 3062 3062 3061 3060 3058 3057 3054 3051 3050 3046 3044 3041 3038 3034 3030 3027 3025 3024 3024 3025 3025 3027
3039 3041 3042 3044 3045 3046 3047 3048 3050 3050 3051 3052 3053 3053 3054 3055 3055 3055 3056 3056 3055 3055 3054 3053 3052 3050 3047 3045 3043 3040 3038 3035 3033 3030 3027 3023 3021 3019 3019 3019 3019 3021 3023
3038 3039 3039 3040 3042 3042 3043 3044 3044 3045 3045 3046 3046 3047 3047 3047 3048 3048 3048 3048 3048 3047 3046 3044 3042 3041 3038 3036 3034 3031 3029 3028 3026 3023 3020 3017 3016 3015 3015 3015 3016 3018 3019
3035 3035 3036 3036 3036 3036 3037 3037 3038 3038 3039 3039 3039 3040 3040 3040 3041 3040 3040 3041 3040 3038 3037 3035 3033 3031 3029 3028 3025 3023 3020 3020 3018 3015 3013 3012 3011 3012 3012 3013 3012 3013 3015
3030 3031 3031 3031 3031 3031 3031 3031 3031 3031 3031 3032 3032 3032 3032 3032 3033 3033 3033 3032 3031 3030 3029 3028 3025 3023 3021 3019 3016 3014 3013 3012 3010 3007 3007 3007 3007 3007 3008 3008 3008 3009 3011
3027 3028 3028 3027 3027 3026 3026 3025 3025 3025 3025 3025 3025 3025 3026 3026 3026 3026 3025 3025 3023 3022 3021 3020 3018 3016 3014 3012 3010 3008 3007 3006 3003 3002 3002 3002 3001 3001 3002 3002 3004 3005 3006